TimeEST,TemperatureF,Dew PointF,Humidity,Sea Level PressureIn,VisibilityMPH,Wind Direction,Wind SpeedMPH,Gust SpeedMPH,PrecipitationIn,Events,Conditions,WindDirDegrees,DateUTC
12:17 AM,12.7,7.0,78,29.99,7.0,NNW,8.1,-,N/A,Snow,Light Snow,340,2013-01-17 05:17:00
12:37 AM,11.8,3.9,71,30.00,10.0,NNW,9.2,16.1,N/A,,Overcast,330,2013-01-17 05:37:00
12:57 AM,10.9,3.2,71,30.01,10.0,NNW,6.9,-,N/A,,Overcast,330,2013-01-17 05:57:00
1:17 AM,9.9,3.0,74,30.02,10.0,NNW,6.9,-,N/A,,Overcast,340,2013-01-17 06:17:00
1:37 AM,8.6,3.2,79,30.03,10.0,NNW,6.9,-,N/A,,Mostly Cloudy,340,2013-01-17 06:37:00
1:57 AM,8.6,2.3,76,30.05,10.0,NNW,9.2,-,N/A,,Mostly Cloudy,340,2013-01-17 06:57:00
2:17 AM,7.5,-0.0,71,30.06,10.0,NW,9.2,-,N/A,,Scattered Clouds,320,2013-01-17 07:17:00
2:36 AM,6.4,-1.1,71,30.07,10.0,NW,8.1,-,N/A,,Clear,320,2013-01-17 07:36:00
2:57 AM,5.7,-1.5,72,30.08,10.0,NNW,5.8,-,N/A,,Clear,330,2013-01-17 07:57:00
3:17 AM,4.6,-1.8,75,30.09,10.0,NW,5.8,-,N/A,,Scattered Clouds,320,2013-01-17 08:17:00
3:36 AM,4.1,-1.7,77,30.11,10.0,NW,6.9,-,N/A,,Mostly Cloudy,320,2013-01-17 08:36:00
3:57 AM,3.4,-2.2,78,30.11,10.0,NW,4.6,-,N/A,,Mostly Cloudy,320,2013-01-17 08:57:00
4:17 AM,2.5,-2.7,79,30.11,10.0,NW,4.6,-,N/A,,Scattered Clouds,320,2013-01-17 09:17:00
4:36 AM,1.9,-3.5,78,30.11,10.0,NNW,4.6,-,N/A,,Clear,330,2013-01-17 09:36:00
4:57 AM,1.8,-4.0,77,30.11,10.0,NNW,5.8,-,N/A,,Clear,330,2013-01-17 09:57:00
5:17 AM,1.2,-4.5,77,30.11,10.0,NNW,5.8,-,N/A,,Clear,330,2013-01-17 10:17:00
5:37 AM,0.9,-4.9,77,30.12,10.0,NW,4.6,-,N/A,,Clear,320,2013-01-17 10:37:00
5:57 AM,0.5,-4.9,78,30.12,10.0,NW,4.6,-,N/A,,Clear,320,2013-01-17 10:57:00
6:55 AM,-2.2,-7.6,78,30.13,10.0,WNW,3.5,-,N/A,,Clear,290,2013-01-17 11:55:00
7:50 AM,-2.2,-5.8,85,30.13,10.0,Calm,Calm,-,N/A,,Clear,0,2013-01-17 12:50:00
8:50 AM,-4.0,-9.4,78,30.16,10.0,Calm,Calm,-,N/A,,Clear,0,2013-01-17 13:50:00
9:50 AM,1.4,-4.0,78,30.18,10.0,WSW,5.8,-,N/A,,Scattered Clouds,240,2013-01-17 14:50:00
10:50 AM,5.0,-0.4,78,30.19,10.0,West,11.5,-,N/A,,Mostly Cloudy,270,2013-01-17 15:50:00
11:55 AM,6.8,-2.2,67,30.18,10.0,WNW,15.0,20.7,N/A,,Overcast,300,2013-01-17 16:55:00
12:50 PM,8.6,-4.0,57,30.16,10.0,WNW,15.0,-,N/A,,Overcast,290,2013-01-17 17:50:00
1:50 PM,8.6,-4.0,57,30.14,10.0,WNW,17.3,23.0,N/A,,Overcast,300,2013-01-17 18:50:00
2:50 PM,8.6,-4.0,57,30.14,10.0,WNW,9.2,13.8,N/A,,Overcast,300,2013-01-17 19:50:00
3:50 PM,8.6,1.4,73,30.16,3.0,NW,12.7,20.7,N/A,Snow,Light Snow,320,2013-01-17 20:50:00
4:50 PM,8.6,-4.0,57,30.16,10.0,WNW,18.4,24.2,N/A,,Mostly Cloudy,300,2013-01-17 21:50:00
5:50 PM,6.8,-5.8,56,30.19,10.0,WNW,12.7,21.9,N/A,,Mostly Cloudy,300,2013-01-17 22:50:00
6:50 PM,5.0,-4.0,66,30.21,10.0,WNW,8.1,-,N/A,,Clear,290,2013-01-17 23:50:00
7:50 PM,5.0,-4.0,66,30.22,10.0,WNW,3.5,-,N/A,,Clear,300,2013-01-18 00:50:00
8:50 PM,3.2,-4.0,72,30.22,10.0,WSW,5.8,-,N/A,,Scattered Clouds,250,2013-01-18 01:50:00
9:45 PM,1.4,-2.2,85,30.22,10.0,WSW,4.6,-,N/A,,Mostly Cloudy,240,2013-01-18 02:45:00
10:17 PM,2.3,-2.4,81,30.22,10.0,WSW,6.9,-,N/A,,Mostly Cloudy,240,2013-01-18 03:17:00
10:37 PM,2.3,-2.4,81,30.22,10.0,West,5.8,-,N/A,,Mostly Cloudy,260,2013-01-18 03:37:00
10:57 PM,1.9,-3.1,79,30.22,10.0,West,6.9,-,N/A,,Scattered Clouds,260,2013-01-18 03:57:00
11:16 PM,1.4,-3.1,81,30.22,10.0,WSW,4.6,-,N/A,,Scattered Clouds,240,2013-01-18 04:16:00
11:37 PM,1.9,-3.1,79,30.22,10.0,WSW,5.8,-,N/A,,Mostly Cloudy,250,2013-01-18 04:37:00
11:57 PM,1.4,-3.6,79,30.22,10.0,West,4.6,-,N/A,,Mostly Cloudy,270,2013-01-18 04:57:00